Fort Campbell, KY

1:39 AM CST on December 11, 2016 (GMT -0600)
Campbell Army Air Field

Weather History for KHOP - March, 2013

Change the Weather History Date:

Tuesday, March 19, 2013

  Actual Average Record
Temperature  
Mean Temperature 42 °F -  
Max Temperature 52 °F 58 °F 82 °F (2012)
Min Temperature 32 °F 36 °F 32 °F (2013)
Degree Days  
Heating Degree Days 23    
Moisture  
Dew Point 26 °F    
Average Humidity 62    
Maximum Humidity 100    
Minimum Humidity 22    
Precipitation  
Precipitation 0.00 in - - ()
Sea Level Pressure  
Sea Level Pressure 30.15 in    
Wind  
Wind Speed 5 mph (NW)    
Max Wind Speed 13 mph    
Max Gust Speed 18 mph    
Visibility 9 miles    
Events      
Averages and records for this station are not official NWS values.
T = Trace of Precipitation, MM = Missing Value Source: NWS Daily Summary

Daily Weather History Graph

Daily Weather History Graph

Search for Another Location

Airport or City:

Trip Planner

Search our weather history database for the weather conditions in past years. The results will help you decide how hot, cold, wet, or windy it might be!

Date:

Astronomy

Mar. 19, 2013 Rise Set
Actual Time 6:54 AM CDT 7:01 PM CDT
Civil Twilight 6:28 AM CDT 7:26 PM CDT
Nautical Twilight 5:58 AM CDT 7:57 PM CDT
Astronomical Twilight 5:28 AM CDT 8:27 PM CDT
Moon 11:53 AM CDT (3/19) 1:39 AM CDT (3/19)
Length of Visible Light 12h 58m
Length of Day
12h 06m
Waxing Crescent, 50% of the Moon is Illuminated
Mar 19
Waxing Crescent
Mar 19
First Quarter
Mar 27
Full
Apr 2
Last Quarter
Apr 10
New

Hourly Weather History & Observations

Time (CDT) Temp. Windchill Dew Point Humidity Pressure Visibility Wind Dir Wind Speed Gust Speed Precip Events Conditions
12:55 AM 36.9 °F 34.3 °F 36.9 °F 100% 30.02 in 10.0 mi SSW 3.5 mph - N/A   Clear
1:55 AM 36.0 °F 33.3 °F 36.0 °F 100% 30.04 in 10.0 mi SSW 3.5 mph - N/A   Clear
2:55 AM 36.0 °F 32.1 °F 36.0 °F 100% 30.05 in 10.0 mi SW 4.6 mph - N/A   Clear
3:55 AM 38.8 °F 32.6 °F 38.8 °F 100% 30.05 in 10.0 mi WNW 9.2 mph - N/A   Clear
4:55 AM 36.9 °F 34.3 °F 36.9 °F 100% 30.04 in 10.0 mi NW 3.5 mph - N/A   Clear
5:55 AM 33.8 °F 30.8 °F 33.6 °F 99% 30.08 in 4.0 mi WSW 3.5 mph - N/A   Clear
5:59 AM 33.8 °F 30.8 °F 33.8 °F 100% 30.08 in 2.5 mi WSW 3.5 mph - N/A   Clear
6:06 AM 32.0 °F 27.5 °F 32.0 °F 100% 30.09 in 3.0 mi SW 4.6 mph - N/A   Clear
7:55 AM 35.6 °F 30.7 °F 32.7 °F 89% 30.14 in 10.0 mi NNW 5.8 mph - N/A   Clear
8:55 AM 37.6 °F 33.1 °F 29.8 °F 74% 30.16 in 10.0 mi NNW 5.8 mph - N/A   Clear
9:55 AM 40.3 °F 35.5 °F 25.7 °F 56% 30.17 in 10.0 mi NNW 6.9 mph - N/A   Clear
10:55 AM 42.8 °F 37.0 °F 21.4 °F 43% 30.19 in 10.0 mi NNW 10.4 mph - N/A   Clear
11:55 AM 45.0 °F 38.9 °F 20.7 °F 38% 30.20 in 10.0 mi NW 12.7 mph 18.4 mph N/A   Clear
12:55 PM 46.4 °F 42.9 °F 21.6 °F 37% 30.20 in 10.0 mi Variable 6.9 mph - N/A   Clear
1:55 PM 48.6 °F - 22.5 °F 36% 30.20 in 10.0 mi NW 10.4 mph - N/A   Clear
2:55 PM 50.0 °F - 20.3 °F 31% 30.19 in 10.0 mi North 6.9 mph - N/A   Clear
3:55 PM 52.2 °F - 14.4 °F 22% 30.18 in 10.0 mi NNW 6.9 mph - N/A   Overcast
4:55 PM 51.1 °F - 15.3 °F 24% 30.18 in 10.0 mi North 11.5 mph - N/A   Overcast
5:55 PM 49.1 °F - 18.1 °F 29% 30.19 in 10.0 mi North 8.1 mph - N/A   Mostly Cloudy
6:55 PM 45.0 °F 41.8 °F 21.9 °F 40% 30.20 in 10.0 mi NNE 5.8 mph - N/A   Overcast
7:55 PM 43.2 °F 39.0 °F 23.5 °F 46% 30.21 in 10.0 mi North 6.9 mph - N/A   Overcast
8:55 PM 41.9 °F 38.2 °F 20.8 °F 43% 30.21 in 10.0 mi NE 5.8 mph - N/A   Overcast
9:55 PM 42.3 °F - 15.3 °F 34% 30.20 in 10.0 mi Calm Calm - N/A   Overcast
10:55 PM 41.0 °F - 20.5 °F 44% 30.20 in 10.0 mi Calm Calm - N/A   Overcast
11:55 PM 39.6 °F - 26.2 °F 59% 30.19 in 10.0 mi Calm Calm - N/A   Mostly Cloudy